Location: Liberec
(50.7830°N, 15.0500°E)
Time: 19:50:47
(UTC+02:00)

ISS - Pass Details

Date: 27 May 2021
Orbit: 417 x 422 km, 51.6° (Epoch: 16 June)

Event Time Altitude Azimuth Distance (km) Brightness Sun altitude
Rises 23:51:20 0° 278° (W) 2,368 0.4 -16.3°
Reaches altitude 10° 23:54:41 10° 242° (WSW) 1,500 -1.1 -16.5°
Enters shadow 23:55:02 11° 237° (WSW) 1,461 -1.2 -16.5°
